Location: *
(46.3500°N, 10.9000°E)
Time: 21:36:26
(UTC+00:00)

Explorer 7 - Pass Details

Date: 24 April 2021
Orbit: 484 x 677 km, 50.3° (Epoch: 05 May)

Event Time Altitude Azimuth Distance (km) Brightness Sun altitude
Rises 19:11:46 0° 261° (W) 2,620 11.2 -9.5°
Reaches altitude 10° 19:13:56 10° 266° (W) 1,760 10.3 -9.8°
Maximum altitude 19:17:53 59° 346° (NNW) 633 7.4 -10.4°
Drops below altitude 10° 19:22:07 10° 67° (ENE) 1,877 9.2 -11.0°
Enters shadow 19:23:44 - 70° (ENE) 2,517 9.8 -11.2°
Sets 19:24:29 0° 71° (ENE) 2,813 - -11.3°
